{"data":{"norad_id":55273,"intl_designator":"2023-010E","name":"STARLINK-5291","alt_names":[],"object_type":"PAYLOAD","status":"ACTIVE","operator":null,"country":"US","launch_date":"2023-01-19","launch_site_code":"AFWTR","launch_vehicle":null,"mission":null,"orbit_class":"UNKNOWN","rcs_meters":null,"size_class":null,"mass_kg":null,"dimensions":null,"purposes":["comms"],"wikipedia_slug":null,"has_3d_model":false,"image_url":null,"decayed_at":null,"tle_current":{"epoch":"2026-09-20T22:00:03.000096Z","epoch_age_seconds":57410,"freshness":"FRESH","line1":"1 55273U 23010E   26263.91670139  .00134726  00000+0  10212-1 0  9992","line2":"2 55273  69.9993 272.0649 0004443 258.0535  76.5022 15.01472747  5760","mean_motion":15.01472747,"eccentricity":0.0004443,"inclination_deg":69.9993,"raan_deg":272.0649,"arg_perigee_deg":258.0535,"mean_anomaly_deg":76.5022,"bstar":0.010212,"rev_number":576,"period_min":95.905836644533,"perigee_km":559.27050071093,"apogee_km":565.43782115654,"semimajor_km":6940.4911609337,"source":"CELESTRAK","updated_at":"2026-09-21T09:00:33.164373Z"}}}